Torna al catalogo

FENGYUN 1C DEB

AttivoPO
NORAD 30845·DEBRIS·🇨🇳 China

Lanciato May 10, 1999 da Taiyuan Satellite Launch Center

Loading…

Prossimi Passaggi (prossime 24 ore)

TLE

AggiornatoSource: Space-Track

Epoca: Sep 13, 2026, 10:00 UTC

1 30845U 99025AWF 26256.41677514  .00000146  00000-0  16289-3 0  9991
2 30845  98.4012 229.9360 0191451 246.5911 267.6191 13.77043906980230

Traccia FENGYUN 1C DEB in tempo reale con AllMySat

Download on the App Store